Location: Culleoka
(33.1312°N, 96.4919°W)
Time: 15:05:42
(UTC+00:00)

H-2A R/B - Visible Passes

Search period start: 02 July 2022 00:00
Search period end: 12 July 2022 00:00
Orbit: 576 x 653 km, 98.5° (Epoch: 01 July)

Date Brightness Start Highest point End Pass type
(mag) Time Alt. Az. Time Alt. Az. Time Alt. Az.
02 Jul 2.8 02:56:54 10° N 03:01:16 58° WNW 03:05:40 10° SSW visible
03 Jul 3.6 03:12:35 10° N 03:16:41 38° WNW 03:20:50 10° SW visible
04 Jul 4.3 03:28:25 10° NNW 03:32:06 26° WNW 03:35:47 10° SW visible
05 Jul 2.8 02:07:46 10° NNE 02:11:51 35° E 02:15:57 10° SSE visible
05 Jul 4.9 03:44:29 10° NNW 03:47:28 18° WNW 03:50:27 10° WSW visible
06 Jul 2.3 02:23:00 10° NNE 02:27:22 53° E 02:31:45 10° S visible
06 Jul 5.2 04:01:03 10° NW 04:02:48 12° WNW 04:04:32 10° W visible
07 Jul 2.1 02:38:22 10° NNE 02:42:52 81° ESE 02:47:22 10° S visible
08 Jul 2.5 02:53:53 10° N 02:58:20 66° WNW 03:02:47 10° SSW visible
09 Jul 3.4 03:09:31 10° N 03:13:47 43° WNW 03:18:02 10° SW visible
10 Jul 4.1 03:25:18 10° N 03:29:11 29° WNW 03:33:03 10° SW visible
11 Jul 3.0 02:04:54 10° NE 02:08:53 30° E 02:12:51 10° SSE visible
11 Jul 4.7 03:41:16 10° NNW 03:44:33 20° WNW 03:47:50 10° WSW visible
